TimeCDT,TemperatureF,Dew PointF,Humidity,Sea Level PressureIn,VisibilityMPH,Wind Direction,Wind SpeedMPH,Gust SpeedMPH,PrecipitationIn,Events,Conditions,WindDirDegrees,DateUTC
12:15 AM,80.6,44.4,28,29.91,10.0,South,24.2,29.9,N/A,,Clear,190,2013-06-21 05:15:00
12:35 AM,80.1,45.3,29,29.91,10.0,SSE,20.7,-,N/A,,Clear,160,2013-06-21 05:35:00
12:55 AM,81.5,43.9,26,29.90,10.0,South,18.4,24.2,N/A,,Clear,190,2013-06-21 05:55:00
1:15 AM,81.0,43.9,27,29.93,10.0,SSW,16.1,-,N/A,,Clear,200,2013-06-21 06:15:00
1:35 AM,82.0,43.7,26,29.93,10.0,SW,35.7,42.6,N/A,,Clear,220,2013-06-21 06:35:00
1:55 AM,79.5,45.9,30,29.94,10.0,SSW,29.9,41.4,N/A,,Clear,210,2013-06-21 06:55:00
2:15 AM,77.2,48.4,36,29.95,10.0,SSW,29.9,35.7,N/A,,Clear,210,2013-06-21 07:15:00
2:35 AM,76.6,50.2,39,29.95,10.0,SSW,24.2,33.4,N/A,,Clear,210,2013-06-21 07:35:00
2:55 AM,75.6,52.0,44,29.96,10.0,SW,17.3,26.5,N/A,,Clear,220,2013-06-21 07:55:00
3:15 AM,75.2,52.9,46,29.96,10.0,SW,21.9,27.6,N/A,,Clear,220,2013-06-21 08:15:00
3:35 AM,75.4,53.8,47,29.97,10.0,SSW,24.2,29.9,N/A,,Clear,210,2013-06-21 08:35:00
3:55 AM,75.2,54.5,48,29.97,10.0,SSW,18.4,-,N/A,,Clear,210,2013-06-21 08:55:00
4:15 AM,75.0,55.0,50,29.96,10.0,SW,18.4,24.2,N/A,,Clear,220,2013-06-21 09:15:00
4:35 AM,75.2,54.7,49,29.93,10.0,WSW,26.5,32.2,N/A,,Scattered Clouds,240,2013-06-21 09:35:00
4:55 AM,76.1,53.8,46,29.93,10.0,West,19.6,33.4,N/A,,Scattered Clouds,260,2013-06-21 09:55:00
5:15 AM,75.0,55.4,50,29.94,10.0,SW,19.6,27.6,N/A,,Scattered Clouds,220,2013-06-21 10:15:00
5:35 AM,74.8,55.8,51,29.94,10.0,SW,23.0,27.6,N/A,,Clear,220,2013-06-21 10:35:00
5:55 AM,73.9,57.0,55,29.95,10.0,SSW,19.6,26.5,N/A,,Clear,210,2013-06-21 10:55:00
6:15 AM,73.4,58.5,59,29.96,10.0,SSW,18.4,-,N/A,,Clear,210,2013-06-21 11:15:00
6:35 AM,72.5,58.5,61,29.97,10.0,SSW,13.8,-,N/A,,Clear,210,2013-06-21 11:35:00
6:55 AM,72.1,59.4,64,30.00,10.0,SW,11.5,-,N/A,,Clear,220,2013-06-21 11:55:00
7:15 AM,71.6,59.9,66,30.01,10.0,South,10.4,-,N/A,,Clear,190,2013-06-21 12:15:00
7:35 AM,71.4,59.9,67,30.02,10.0,South,10.4,-,N/A,,Scattered Clouds,170,2013-06-21 12:35:00
7:55 AM,71.6,59.9,66,30.02,10.0,South,10.4,-,N/A,,Scattered Clouds,180,2013-06-21 12:55:00
8:15 AM,72.0,59.9,66,30.03,10.0,South,11.5,16.1,N/A,,Clear,180,2013-06-21 13:15:00
8:35 AM,69.8,61.0,73,30.04,7.0,SW,9.2,19.6,N/A,,Drizzle,230,2013-06-21 13:35:00
8:55 AM,69.4,62.6,79,30.05,10.0,SW,9.2,-,N/A,Rain,Rain,220,2013-06-21 13:55:00
9:15 AM,71.4,62.8,74,30.05,10.0,South,9.2,-,N/A,,Mostly Cloudy,190,2013-06-21 14:15:00
9:35 AM,75.6,62.6,64,30.04,10.0,South,16.1,-,N/A,,Clear,180,2013-06-21 14:35:00
9:55 AM,75.6,62.8,64,30.05,10.0,South,16.1,21.9,N/A,,Clear,180,2013-06-21 14:55:00
10:15 AM,77.9,63.7,61,30.04,10.0,South,18.4,23.0,N/A,,Clear,190,2013-06-21 15:15:00
10:35 AM,77.4,64.0,63,30.03,10.0,South,16.1,25.3,N/A,,Clear,190,2013-06-21 15:35:00
10:55 AM,77.0,63.5,63,30.03,10.0,South,19.6,25.3,N/A,,Clear,190,2013-06-21 15:55:00
11:15 AM,78.6,63.7,60,30.03,10.0,South,23.0,32.2,N/A,,Clear,190,2013-06-21 16:15:00
11:35 AM,79.5,63.9,59,30.03,10.0,South,24.2,28.8,N/A,,Clear,190,2013-06-21 16:35:00
11:55 AM,82.2,63.5,53,30.03,10.0,South,24.2,31.1,N/A,,Clear,190,2013-06-21 16:55:00
12:15 PM,84.2,63.9,50,30.03,10.0,South,24.2,32.2,N/A,,Clear,190,2013-06-21 17:15:00
12:35 PM,82.8,63.9,53,30.02,10.0,South,27.6,32.2,N/A,,Clear,180,2013-06-21 17:35:00
12:55 PM,81.9,64.4,55,30.01,10.0,South,26.5,33.4,N/A,,Clear,180,2013-06-21 17:55:00
1:15 PM,81.7,65.1,57,30.02,10.0,South,23.0,28.8,N/A,,Clear,180,2013-06-21 18:15:00
1:35 PM,81.5,63.9,55,30.01,10.0,South,23.0,31.1,N/A,,Scattered Clouds,190,2013-06-21 18:35:00
1:55 PM,81.3,64.8,57,30.02,10.0,South,25.3,32.2,N/A,,Clear,190,2013-06-21 18:55:00
2:15 PM,85.3,65.1,51,30.01,10.0,South,20.7,33.4,N/A,,Clear,180,2013-06-21 19:15:00
2:35 PM,86.2,64.6,48,30.00,10.0,South,20.7,27.6,N/A,,Clear,180,2013-06-21 19:35:00
2:55 PM,87.1,63.7,45,30.00,10.0,South,21.9,27.6,N/A,,Clear,180,2013-06-21 19:55:00
3:15 PM,87.8,63.3,44,29.99,10.0,South,26.5,33.4,N/A,,Clear,180,2013-06-21 20:15:00
3:35 PM,87.6,64.2,46,29.98,10.0,South,26.5,32.2,N/A,,Clear,170,2013-06-21 20:35:00
3:55 PM,88.5,63.1,43,29.97,10.0,South,27.6,34.5,N/A,,Clear,190,2013-06-21 20:55:00
4:15 PM,88.3,64.2,45,29.97,7.0,South,23.0,32.2,N/A,,Clear,180,2013-06-21 21:15:00
4:35 PM,88.5,63.9,44,29.97,10.0,South,24.2,32.2,N/A,,Clear,180,2013-06-21 21:35:00
4:55 PM,88.7,63.3,43,29.96,10.0,South,26.5,32.2,N/A,,Clear,180,2013-06-21 21:55:00
5:15 PM,88.3,62.6,42,29.96,10.0,South,27.6,35.7,N/A,,Clear,170,2013-06-21 22:15:00
5:35 PM,87.6,62.6,43,29.95,10.0,South,29.9,36.8,N/A,,Clear,170,2013-06-21 22:35:00
5:55 PM,87.6,62.8,43,29.94,10.0,South,31.1,38.0,N/A,,Clear,170,2013-06-21 22:55:00
6:15 PM,87.1,62.2,43,29.93,10.0,South,28.8,36.8,N/A,,Clear,170,2013-06-21 23:15:00
6:35 PM,86.5,61.9,43,29.93,10.0,South,28.8,34.5,N/A,,Clear,170,2013-06-21 23:35:00
6:55 PM,85.5,61.5,44,29.92,10.0,South,28.8,38.0,N/A,,Clear,170,2013-06-21 23:55:00
7:15 PM,85.3,61.5,45,29.92,10.0,South,24.2,36.8,N/A,,Clear,170,2013-06-22 00:15:00
7:35 PM,84.4,61.5,46,29.92,10.0,South,29.9,39.1,N/A,,Clear,180,2013-06-22 00:35:00
7:55 PM,83.5,61.7,48,29.94,10.0,South,24.2,32.2,N/A,,Clear,170,2013-06-22 00:55:00
8:15 PM,82.4,61.3,49,29.93,10.0,South,23.0,31.1,N/A,,Clear,170,2013-06-22 01:15:00
8:35 PM,81.5,61.2,50,29.94,10.0,South,23.0,31.1,N/A,,Clear,170,2013-06-22 01:35:00
8:55 PM,80.4,61.0,51,29.95,10.0,SSE,20.7,25.3,N/A,,Clear,160,2013-06-22 01:55:00
9:15 PM,79.9,61.2,53,29.95,10.0,South,21.9,28.8,N/A,,Clear,170,2013-06-22 02:15:00
9:35 PM,79.5,60.8,53,29.95,10.0,South,23.0,27.6,N/A,,Clear,170,2013-06-22 02:35:00
9:55 PM,79.2,59.9,52,29.95,10.0,South,23.0,28.8,N/A,,Clear,170,2013-06-22 02:55:00
10:15 PM,79.0,59.2,51,29.95,10.0,South,25.3,32.2,N/A,,Clear,170,2013-06-22 03:15:00
10:35 PM,78.8,59.0,51,29.96,10.0,South,21.9,29.9,N/A,,Clear,170,2013-06-22 03:35:00
10:55 PM,78.4,58.6,50,29.96,10.0,South,20.7,29.9,N/A,,Clear,170,2013-06-22 03:55:00
11:15 PM,78.1,58.8,51,29.96,10.0,South,19.6,29.9,N/A,,Clear,170,2013-06-22 04:15:00
11:35 PM,77.9,59.0,52,29.96,10.0,South,23.0,27.6,N/A,,Clear,170,2013-06-22 04:35:00
11:55 PM,77.5,58.6,52,29.96,10.0,South,23.0,32.2,N/A,,Clear,170,2013-06-22 04:55:00